Theta_e
348 348 349 349 349 350 350 351 351 352 352 351 351 351 348 347 346 344 344 345 345 344 344 344 343 342 341 342 344 344 343 342 344 346 347 347 345 344 344 343 343 343 342 343 343 343 344 344 342 343 348 349 349 350 349 347 346 346 347 349 353 354 350 348 346 346 344 343 344 342 344 345 343 346 345 343 343 344 345 347 347 347 347 348 347
348 349 349 349 349 350 350 351 352 352 352 350 352 351 348 348 347 344 344 346 347 346 344 345 344 343 343 345 346 345 342 343 346 348 349 347 343 344 344 343 344 342 341 342 343 343 342 343 343 344 348 346 344 346 345 345 346 346 349 351 353 352 349 347 345 345 344 342 343 343 343 344 345 345 343 342 342 342 344 345 346 347 346 347 347
348 348 348 348 348 349 350 351 351 352 352 351 352 349 347 349 347 344 344 344 346 345 343 344 342 343 346 347 347 347 346 347 348 348 349 349 345 343 343 344 345 342 342 342 342 343 342 343 347 347 346 345 344 344 344 345 345 347 350 351 353 352 346 346 345 343 344 345 344 343 343 344 345 344 341 341 341 342 343 343 345 345 344 347 347
347 346 347 346 347 349 349 351 351 352 353 353 352 349 347 347 345 344 344 342 345 344 342 343 342 343 345 345 345 348 347 347 347 346 348 351 348 345 344 344 346 347 346 345 342 341 341 344 348 347 344 344 344 344 346 347 348 350 350 349 352 352 346 345 346 345 345 347 346 344 344 344 344 343 341 341 340 341 342 342 344 344 343 346 346
346 345 345 346 347 349 349 351 351 351 352 353 353 351 349 346 343 344 344 342 344 343 342 344 344 344 344 342 342 345 345 345 346 347 348 350 349 349 348 343 346 348 347 347 344 340 341 342 343 344 343 344 346 348 350 351 352 351 349 349 352 351 349 346 346 347 345 345 348 346 346 346 345 343 342 343 342 340 342 342 343 344 343 345 345
346 344 344 346 346 348 350 351 351 351 352 353 352 353 352 347 342 344 344 343 343 344 344 344 345 345 343 341 342 343 344 345 347 349 348 348 350 351 350 345 344 345 344 346 345 340 340 341 341 344 345 344 346 349 349 350 353 353 350 351 352 349 348 348 345 347 347 346 348 348 349 348 348 348 344 343 343 341 341 341 342 343 341 343 345
345 345 345 345 345 347 349 351 351 350 351 352 351 353 352 347 343 344 344 344 344 345 345 344 345 346 342 343 345 345 346 346 346 349 349 349 351 350 349 345 343 345 344 344 344 342 340 341 341 343 345 346 344 346 350 353 353 352 349 348 349 347 348 349 346 346 348 348 348 348 349 348 348 350 348 346 344 342 343 342 342 342 341 342 343
344 345 345 345 346 347 349 349 350 349 351 352 351 352 350 345 344 345 345 344 344 345 346 344 346 346 343 344 346 346 349 346 343 347 348 347 350 349 348 345 342 344 346 344 344 343 341 341 342 341 345 346 344 346 352 352 350 348 346 346 346 345 348 350 349 347 347 347 348 349 348 347 347 349 348 348 347 343 342 343 343 342 342 342 341
344 344 344 345 345 346 347 348 349 348 350 351 352 352 350 346 344 344 345 345 344 345 345 345 346 346 344 344 345 347 350 347 344 346 345 344 346 346 347 346 343 342 344 345 345 345 342 342 342 341 342 343 345 351 351 348 346 346 346 346 346 346 348 349 349 349 348 348 349 350 350 349 349 349 347 348 348 346 344 343 343 343 343 342 342
343 344 343 344 345 346 346 347 348 348 349 352 352 351 350 347 344 343 345 345 344 345 346 346 347 346 345 345 345 346 348 348 347 346 343 342 343 343 343 344 344 343 343 343 344 345 343 343 344 342 343 343 345 349 348 345 345 345 345 346 346 346 347 349 350 350 349 350 349 349 350 351 351 350 348 347 348 347 345 343 342 344 343 342 344
344 344 344 344 344 344 345 346 348 348 350 352 352 351 351 349 345 341 344 346 345 345 346 345 346 346 345 346 346 346 347 347 347 346 344 344 344 344 343 342 345 346 346 345 343 343 343 343 345 345 343 343 342 343 345 347 350 349 346 345 346 345 346 348 350 350 350 349 349 347 349 350 350 350 349 348 348 347 347 344 343 344 343 343 344
344 344 343 343 343 344 345 346 348 349 351 352 351 350 350 349 345 341 342 346 345 345 346 345 346 346 346 347 346 345 346 347 347 347 345 344 345 346 344 342 344 344 346 347 345 344 342 341 343 344 341 341 342 341 343 347 351 353 348 345 346 345 345 346 347 351 351 349 350 349 348 349 349 351 350 348 349 348 348 347 345 344 344 345 345
345 344 344 343 343 345 346 348 350 351 350 350 350 350 350 348 345 341 341 344 345 344 345 345 344 345 346 347 346 345 346 346 347 349 348 346 347 347 346 344 344 342 344 347 348 346 343 340 340 342 341 341 342 342 341 342 345 349 347 344 345 345 344 345 346 350 351 350 351 350 349 350 349 350 350 349 349 349 349 349 346 345 345 346 345
345 345 345 344 345 347 348 350 350 349 348 348 349 350 349 346 344 343 341 342 344 344 344 344 344 344 346 346 346 346 346 346 349 352 353 351 349 348 349 350 348 346 346 347 349 348 346 343 340 341 342 341 341 341 341 340 341 345 344 344 349 347 343 343 345 348 350 350 350 351 350 350 350 350 350 349 349 349 350 350 349 348 346 345 346
346 346 345 346 348 348 350 351 350 347 347 348 350 349 346 343 343 343 343 342 342 342 342 343 343 343 344 346 346 347 347 348 350 352 353 353 352 351 351 351 351 351 349 346 345 345 345 343 340 340 341 341 342 341 341 341 340 342 343 343 349 349 343 343 344 345 350 350 349 349 349 349 350 350 350 350 350 349 351 351 351 350 348 346 347
348 347 346 346 348 349 349 350 350 347 346 348 350 347 343 341 341 342 343 342 341 340 341 342 342 341 342 344 345 346 347 348 349 348 350 353 353 353 351 349 351 352 349 344 342 341 341 341 341 342 342 341 342 342 341 343 342 343 343 341 346 350 347 344 343 343 346 349 349 348 347 348 351 350 350 350 351 350 351 351 351 351 351 350 349
349 348 347 346 348 350 349 350 350 348 347 348 347 344 341 341 342 341 342 343 341 340 340 342 342 341 341 341 343 345 345 347 349 349 351 352 352 353 353 351 351 351 350 347 344 342 341 341 341 343 343 341 342 342 341 343 342 343 344 341 345 351 348 343 344 344 347 350 351 350 347 348 350 349 348 350 350 350 350 351 351 352 352 352 352
350 348 348 348 350 350 349 349 349 348 346 345 342 340 341 341 341 342 342 342 343 342 341 341 341 341 342 340 341 344 346 350 353 353 353 354 352 352 353 353 353 351 352 352 348 342 341 341 341 343 343 342 342 342 341 341 342 342 343 343 343 346 345 343 343 344 348 351 351 350 350 349 350 349 348 349 351 350 350 351 351 352 352 352 353
351 348 348 349 350 350 349 348 349 347 345 344 343 343 343 342 342 344 344 343 343 345 344 342 341 343 344 342 341 342 345 351 354 354 353 353 352 354 354 353 353 353 351 350 347 345 343 341 341 341 342 342 341 342 341 341 342 343 344 347 348 344 342 344 345 347 351 352 349 348 348 348 350 350 348 349 349 349 349 350 351 351 352 352 352
351 348 348 348 349 350 349 348 349 347 345 345 347 347 347 346 345 346 347 345 344 347 347 343 343 346 347 344 341 340 343 348 352 352 353 353 352 354 355 353 353 354 353 349 348 350 347 343 345 345 346 347 344 343 344 342 343 344 345 350 353 349 343 343 347 352 354 353 348 345 345 346 346 347 348 349 348 348 348 349 350 351 351 351 351
352 349 348 348 347 348 349 348 348 348 346 345 348 349 349 349 348 348 349 348 346 347 348 345 345 347 347 344 342 341 341 345 350 351 352 353 353 353 355 354 354 354 354 352 350 351 350 347 350 351 352 353 348 345 346 345 344 344 343 347 348 345 343 344 345 347 350 350 347 345 344 344 343 344 346 349 349 348 349 349 350 351 351 351 352
353 351 348 347 346 347 347 348 349 349 347 346 348 349 348 349 349 347 346 347 347 348 347 344 344 346 345 343 343 344 341 342 349 352 352 352 352 353 354 354 355 353 353 353 352 352 351 350 353 354 352 353 349 344 347 349 348 345 344 348 349 345 343 343 343 343 344 346 345 344 344 345 346 346 346 348 350 349 349 349 349 351 351 351 352
354 352 350 348 347 346 346 347 349 349 347 345 347 349 348 350 350 345 341 343 347 349 345 341 343 343 342 343 344 345 342 340 346 351 352 352 352 353 353 352 354 354 352 352 352 353 351 347 351 352 349 349 347 344 348 350 349 347 346 350 354 352 348 346 346 346 346 348 347 345 347 349 351 351 349 349 351 351 351 350 349 350 350 350 351
355 353 352 350 347 347 348 348 348 348 348 347 348 347 349 351 349 344 339 340 345 347 343 341 342 342 343 345 345 345 345 343 344 348 350 352 352 353 352 351 352 354 354 353 352 354 351 344 346 348 345 346 348 347 349 351 352 350 349 349 351 350 349 349 349 349 349 351 350 348 350 352 351 351 349 349 352 353 352 352 352 351 351 352 352
354 352 350 349 346 346 347 347 345 344 345 347 348 347 347 347 345 341 340 341 343 344 341 341 342 342 343 346 347 347 347 346 345 346 347 348 349 350 351 351 351 352 354 355 353 353 352 346 346 348 346 346 348 348 350 354 356 354 352 353 352 350 349 349 348 348 347 348 348 348 350 351 351 351 351 353 355 352 351 353 355 354 355 354 352
352 352 351 349 347 346 347 346 346 344 343 345 345 344 344 343 341 340 341 341 342 342 342 342 342 342 342 345 347 348 349 347 346 346 346 347 346 347 348 349 349 350 352 354 354 354 353 348 347 351 352 350 349 350 350 351 355 356 354 354 355 353 352 351 349 349 349 349 350 350 349 349 351 351 351 353 352 349 350 352 352 351 351 351 350
351 352 351 351 349 348 347 346 346 347 345 344 343 343 343 342 341 341 341 341 342 342 341 341 342 342 342 343 344 347 348 349 349 347 347 347 346 345 346 346 347 348 350 352 353 354 355 352 350 352 355 354 351 351 350 349 352 356 355 353 354 354 354 352 352 352 352 352 353 352 351 351 352 351 352 352 351 350 352 352 350 349 350 349 351
351 351 351 352 352 351 349 347 347 346 344 344 344 344 344 344 344 342 341 341 342 342 343 342 342 342 342 342 343 344 346 348 349 350 349 349 349 347 347 347 347 348 348 349 350 351 353 353 353 352 354 354 353 352 351 349 349 353 355 353 353 354 353 354 354 353 353 353 353 353 353 353 353 352 351 351 351 352 352 352 352 352 350 348 350
350 351 351 352 353 352 352 351 349 346 345 347 348 346 344 344 344 343 342 341 342 342 343 343 343 343 343 342 343 344 345 347 348 348 347 347 348 349 349 349 349 349 349 348 348 350 351 352 352 353 352 353 353 354 353 351 350 351 353 354 355 354 354 354 354 354 354 353 353 352 351 352 353 350 345 343 344 344 343 344 345 346 345 346 347
350 350 351 352 352 352 352 352 351 349 349 350 351 349 346 345 344 342 341 340 341 342 343 343 344 344 343 342 342 342 343 345 347 347 346 345 346 348 350 350 349 349 350 350 349 350 351 351 351 352 351 351 352 353 353 350 350 351 351 353 354 353 352 352 353 353 353 353 352 351 351 351 349 344 341 340 340 339 338 337 338 338 340 341 342
349 349 350 350 350 351 351 351 351 351 351 351 350 350 349 347 345 343 341 340 341 342 342 342 342 343 343 342 341 341 343 344 344 346 347 347 347 348 348 347 345 345 347 347 345 346 348 349 350 350 349 349 350 351 350 348 347 348 348 348 349 349 348 348 350 352 352 351 351 350 351 351 348 346 346 346 344 342 341 339 337 336 335 336 336
347 347 348 348 348 349 350 350 350 351 351 350 350 350 349 347 346 344 342 341 341 341 341 341 341 342 343 341 340 343 345 345 344 345 346 347 348 348 348 347 346 346 345 343 342 343 343 345 348 349 348 349 348 347 346 344 345 346 346 345 347 349 350 350 350 351 352 351 351 350 350 349 349 350 350 347 345 345 345 344 342 339 337 336 335
346 346 346 346 346 347 347 348 349 349 349 349 349 349 349 348 347 347 345 343 343 343 342 342 340 340 340 340 339 341 343 343 342 343 345 346 348 349 350 350 350 350 349 346 344 341 337 339 344 348 348 347 344 341 340 340 342 344 345 345 346 348 350 350 350 351 351 351 351 351 351 349 350 351 348 344 344 345 345 345 345 344 342 340 340
345 345 344 344 344 344 345 346 347 347 347 347 348 348 349 349 349 349 349 348 348 348 347 345 344 343 342 341 340 340 341 341 340 341 344 345 347 349 351 351 351 351 351 350 346 342 339 341 344 347 348 344 341 340 340 339 340 341 342 344 345 346 349 350 350 349 350 350 350 350 351 351 351 350 347 343 345 346 345 345 346 345 344 344 343
344 343 342 343 343 344 344 344 344 345 345 345 346 347 347 348 348 349 349 350 350 349 349 348 348 347 346 345 344 343 343 343 342 342 343 344 346 348 348 349 350 349 349 350 348 345 345 347 348 349 349 346 344 345 344 343 343 343 343 344 343 345 348 350 350 347 345 347 347 347 348 349 349 347 344 343 345 345 344 344 345 345 345 345 345
343 342 341 343 343 343 343 343 343 343 343 343 344 344 345 347 347 347 348 349 350 350 349 350 349 349 348 348 348 348 347 347 347 345 344 345 346 347 348 349 350 347 347 349 349 348 348 349 350 351 351 349 348 350 350 349 348 347 347 346 346 346 347 349 350 347 344 344 345 344 345 347 348 346 343 343 344 343 343 344 343 344 345 345 347
341 340 341 341 341 341 342 342 342 342 342 342 342 342 343 345 345 346 347 347 348 347 347 348 348 348 349 349 349 349 349 349 348 348 347 348 348 348 349 349 349 348 348 349 350 350 350 350 351 352 351 350 350 352 352 351 351 350 349 349 348 348 349 349 349 348 347 347 347 345 344 347 348 348 345 344 343 343 343 343 343 344 344 345 347
339 340 340 340 339 340 340 341 341 341 341 341 341 341 342 343 343 344 344 345 345 345 344 345 346 347 347 348 348 347 348 348 348 348 347 348 348 348 348 348 348 348 349 349 349 349 350 350 350 350 351 351 351 351 351 350 350 350 349 349 350 350 351 351 352 352 352 352 351 349 348 348 349 348 347 346 346 345 345 346 346 346 346 347 350
338 339 338 338 338 338 338 339 339 339 340 340 340 340 340 340 340 341 341 341 342 343 342 343 343 343 344 343 342 342 343 344 345 345 345 345 345 345 345 345 346 348 348 348 348 348 348 348 347 348 349 349 349 349 349 349 350 350 350 350 350 351 352 353 353 353 353 353 352 351 351 350 349 349 349 348 348 348 348 348 349 349 348 349 350
337 337 336 336 335 335 336 336 337 337 337 338 338 339 338 338 338 338 339 340 340 340 340 339 339 339 340 340 340 340 341 342 341 341 341 342 342 342 342 342 343 344 345 346 346 346 346 345 345 346 347 347 347 347 346 347 348 349 349 349 350 351 351 352 351 351 351 352 352 352 351 351 350 349 349 349 349 350 350 349 350 350 350 349 349
335 334 334 333 333 333 333 334 334 334 334 334 335 335 335 336 336 337 339 339 339 338 336 334 334 334 335 338 340 340 340 340 339 338 338 338 338 337 336 337 339 340 341 341 342 342 341 342 342 343 343 343 343 343 343 343 344 345 346 346 347 348 349 349 348 348 348 348 348 348 348 349 349 348 349 349 349 349 350 350 350 350 350 350 350
332 332 332 331 331 332 331 331 331 331 331 330 329 329 331 334 335 336 337 337 336 334 329 326 328 328 329 332 333 334 336 337 338 338 335 333 333 333 332 332 333 333 333 334 336 337 338 339 339 339 338 338 337 337 337 337 338 339 341 341 342 343 344 344 344 343 343 343 343 343 344 345 346 346 346 346 346 346 347 347 347 348 348 348 348
329 329 330 330 329 329 329 330 330 330 330 327 324 324 328 330 330 332 333 333 331 327 322 321 326 329 331 332 331 332 335 336 337 337 334 332 331 330 329 328 326 324 324 325 326 328 330 330 331 331 331 331 330 329 329 330 330 332 333 333 334 335 335 337 337 337 337 337 337 338 338 338 338 338 338 338 339 340 341 342 343 345 345 345 346
328 329 330 329 329 329 329 329 329 328 327 325 323 323 324 325 325 326 328 328 327 324 321 322 326 330 332 332 331 332 332 332 332 331 331 329 327 324 322 322 320 319 320 320 320 322 323 323 325 327 327 327 328 327 326 326 326 326 327 327 327 328 328 329 330 330 330 330 330 329 330 330 329 330 330 330 332 333 334 336 337 338 339 340 341
329 329 329 329 329 329 328 328 328 327 327 325 324 323 322 322 322 322 323 326 328 328 327 327 328 329 330 330 330 328 327 327 327 327 326 326 324 321 320 318 317 317 318 318 320 321 320 319 321 322 323 324 326 327 326 325 325 325 325 324 324 324 324 324 324 324 324 324 324 324 324 324 324 324 325 325 326 327 328 329 329 330 333 334 334
329 328 328 327 327 327 326 326 326 326 326 326 324 323 322 324 325 325 326 328 329 329 329 329 329 329 328 328 328 327 326 326 326 325 324 324 321 319 318 318 318 319 319 321 324 326 324 323 323 324 325 326 327 327 326 325 325 324 323 323 322 322 322 321 321 321 321 321 321 321 320 320 321 321 321 322 322 322 323 324 324 326 330 330 328
327 326 324 323 322 323 323 322 321 321 323 324 324 322 321 324 326 327 327 327 328 327 327 327 327 327 327 327 326 325 324 323 322 321 321 319 318 316 315 316 317 318 318 322 326 327 327 327 327 327 326 326 326 326 324 323 322 321 320 319 318 317 317 316 316 316 316 315 315 315 316 315 316 316 317 318 318 318 319 320 320 322 324 324 324
325 324 322 320 318 319 318 317 316 317 318 319 320 321 321 323 326 327 326 326 327 326 326 326 326 326 326 325 323 322 322 322 320 319 319 318 317 316 315 315 315 316 318 321 324 326 326 327 327 327 326 326 325 322 318 316 316 315 314 313 313 312 312 312 312 312 311 312 311 311 311 311 311 312 312 313 313 314 315 316 316 318 319 319 319
323 322 320 317 315 314 314 314 314 315 316 316 318 321 322 323 324 325 325 325 326 326 326 326 326 326 326 324 323 323 324 322 320 318 318 318 317 317 316 315 315 315 317 318 319 321 322 323 324 323 324 325 323 318 313 313 313 312 312 312 312 311 311 311 311 311 311 311 310 310 311 310 310 311 311 311 311 310 311 312 312 313 314 315 315
320 318 316 315 313 312 312 311 312 315 317 319 320 322 323 323 323 323 324 324 324 325 325 325 325 325 325 324 324 324 323 322 321 320 319 318 317 317 317 317 316 316 316 316 316 317 317 317 317 317 318 319 318 315 313 313 313 311 312 311 311 311 311 310 310 310 310 310 310 311 311 311 310 310 310 310 310 310 309 310 310 310 311 311 312
319 317 317 316 314 313 313 312 313 317 319 320 321 321 322 322 323 323 323 323 323 324 324 324 324 324 324 324 324 324 323 323 322 322 321 319 319 318 317 317 317 317 316 316 316 316 316 315 315 314 314 314 313 313 312 312 311 311 311 310 310 310 310 309 310 309 309 310 310 311 311 310 310 311 310 309 310 311 310 310 310 310 310 310 310
Wind_Speed
16 16 16 15 14 14 13 12 12 11 11 11 11 11 11 11 11 12 12 11 10 11 11 10 11 11 11 12 11 10 11 11 11 10 9 9 10 9 8 8 8 8 8 8 8 9 8 8 8 8 7 6 6 6 5 6 7 7 7 8 7 5 6 6 6 7 6 6 7 7 8 7 6 7 6 6 6 5 5 6 5 5 5 5 5
17 16 16 15 15 15 13 13 13 12 11 11 11 11 12 11 11 12 13 12 11 11 11 10 10 10 10 11 10 10 11 10 9 9 9 9 9 9 9 9 9 8 9 9 8 8 9 8 8 8 7 6 6 6 6 6 7 7 6 6 6 6 7 7 7 7 6 6 7 7 8 9 8 7 7 6 6 6 5 5 6 6 5 5 6
18 17 17 16 15 15 14 13 13 12 11 11 11 11 12 12 12 12 12 13 12 11 11 10 10 10 10 10 10 9 10 10 9 10 10 8 8 9 9 9 9 9 9 9 8 8 8 8 6 6 6 6 6 6 6 5 6 6 6 6 6 6 7 7 8 8 6 6 6 7 8 9 9 8 7 7 6 6 5 6 6 6 6 6 6
18 18 17 17 16 16 15 14 13 13 12 12 12 11 12 13 13 13 12 12 11 11 11 11 10 10 10 10 11 10 10 11 10 11 10 9 8 8 9 10 9 8 8 8 7 7 8 7 6 5 5 6 6 6 5 4 4 4 5 7 7 6 6 7 8 9 9 7 6 6 7 8 9 8 8 7 6 6 6 6 6 6 6 6 6
19 19 19 18 17 17 15 14 13 13 12 12 13 12 12 13 13 13 12 12 11 10 11 11 11 10 10 11 11 11 11 11 10 9 10 10 9 8 8 9 10 9 8 8 7 6 7 7 6 5 5 6 5 5 4 4 4 3 4 7 7 6 7 6 6 9 11 12 9 7 7 7 7 6 7 6 5 6 6 6 5 5 5 5 5
19 20 19 19 18 17 16 15 14 13 13 13 13 13 13 13 13 13 12 11 11 10 11 12 11 11 11 12 11 11 10 10 10 9 9 9 8 8 9 9 10 9 8 8 6 6 6 6 6 5 5 5 5 4 4 4 4 3 4 6 6 6 7 6 6 7 10 12 10 9 8 7 6 5 6 7 6 5 5 5 5 4 5 5 5
20 20 19 19 18 18 17 16 15 13 13 12 12 13 13 13 13 13 12 11 11 11 12 12 12 11 11 11 10 10 9 9 10 9 9 9 8 9 9 9 10 9 8 8 7 6 6 5 6 6 5 4 4 5 5 3 3 3 4 6 6 6 7 6 6 5 7 8 8 8 8 8 9 7 6 6 6 5 4 4 5 4 4 4 4
21 20 20 19 19 18 17 16 15 14 13 13 12 13 14 13 13 13 13 12 12 11 12 12 12 11 11 11 10 9 7 8 9 9 9 9 9 9 8 8 9 10 8 8 7 6 6 6 5 6 5 4 4 4 3 3 4 4 4 5 6 6 5 5 5 5 5 6 6 6 6 8 10 9 8 7 4 5 5 4 5 5 5 5 4
22 21 21 20 19 18 17 16 15 14 13 13 13 13 14 14 13 14 14 13 13 11 12 12 12 11 12 11 10 9 8 8 9 9 9 9 9 9 9 8 9 9 9 8 7 7 7 6 6 6 5 5 4 3 3 4 5 4 3 4 5 5 4 4 4 4 5 5 5 6 6 6 6 7 8 7 4 4 5 4 4 4 4 4 3
22 22 21 20 19 19 17 16 15 15 14 13 13 12 13 14 14 15 14 14 14 12 12 13 12 12 12 11 10 10 9 9 9 9 9 9 9 8 9 8 8 8 8 8 8 7 7 7 6 6 5 5 5 4 4 4 3 3 3 3 3 3 3 3 3 3 4 4 5 6 6 5 5 5 5 4 4 3 2 3 4 3 3 3 2
22 22 21 21 20 19 18 17 16 15 14 14 14 13 13 14 15 15 15 15 14 14 13 13 12 12 12 11 10 10 10 10 9 9 9 8 8 8 8 8 8 8 7 7 8 8 7 7 6 6 6 5 5 5 5 4 2 2 2 2 2 2 2 1 2 2 3 4 4 4 5 4 4 4 4 3 3 3 2 2 2 2 1 3 1
23 22 22 22 21 20 18 17 16 16 16 15 15 14 14 14 15 16 16 16 15 15 14 13 13 12 12 11 11 11 11 10 9 9 9 8 8 8 8 8 8 8 8 7 8 8 8 8 7 6 6 6 5 5 5 5 4 3 3 2 1 1 1 0 1 2 3 3 3 3 3 3 3 4 3 3 3 3 3 3 3 3 2 1 1
23 23 22 22 21 20 19 18 17 17 17 16 16 15 15 15 15 16 17 17 16 16 15 14 13 12 12 11 11 12 12 11 10 8 8 8 8 8 8 7 7 8 8 8 7 7 7 7 7 7 6 6 6 6 6 6 6 5 4 2 2 1 1 0 1 2 3 2 2 2 2 3 3 3 3 2 3 3 3 4 3 3 4 3 1
23 23 24 22 21 21 19 19 19 18 18 17 17 17 16 16 16 17 18 17 17 16 15 15 14 13 12 11 11 12 12 12 10 8 7 7 7 8 7 7 7 7 7 7 7 7 7 7 7 7 7 7 7 6 6 6 6 6 5 3 2 2 1 1 1 2 3 3 3 3 3 3 3 2 3 3 3 3 3 4 4 5 6 6 3
22 23 23 23 22 21 20 19 20 19 18 18 18 19 19 18 18 18 18 18 18 17 16 15 14 13 13 12 12 12 12 11 10 10 9 8 7 7 7 7 6 6 6 7 8 8 8 8 7 7 7 7 6 6 7 6 6 6 5 5 4 3 2 1 2 2 3 4 4 4 4 3 3 3 2 3 3 3 4 4 4 5 7 8 6
22 23 23 23 23 23 22 21 20 19 19 19 20 21 21 19 19 19 18 18 18 17 16 15 14 14 13 13 12 12 13 12 12 12 10 8 7 7 7 7 7 6 7 8 8 8 8 8 8 7 7 7 6 7 7 7 7 6 6 6 5 4 4 3 3 3 3 4 4 5 5 4 4 4 3 3 4 3 4 4 4 5 6 7 8
22 23 23 23 22 22 22 21 20 20 20 21 22 22 22 20 19 20 19 18 18 17 16 15 14 14 14 14 13 13 13 12 11 11 9 8 8 7 6 6 7 7 7 7 8 8 9 9 8 8 7 7 6 6 7 7 7 6 6 6 5 5 6 5 4 4 4 4 4 5 5 5 6 7 5 5 6 6 5 5 5 5 6 7 8
24 24 23 22 22 22 21 20 20 20 21 23 23 22 21 21 20 20 20 19 18 17 17 16 15 14 14 14 14 13 13 12 10 10 9 9 9 8 7 7 7 8 8 8 8 9 9 10 10 9 8 8 7 7 7 7 7 6 6 6 6 7 7 6 6 6 5 5 5 5 5 5 5 7 6 6 7 8 6 6 6 6 6 7 7
23 24 23 21 22 22 22 20 20 21 22 23 23 22 22 22 21 20 20 20 18 18 18 16 15 15 15 15 15 14 14 13 12 11 10 10 9 8 8 8 8 8 9 10 9 9 9 9 9 9 9 8 8 8 8 8 7 7 7 6 6 7 7 7 7 6 5 7 7 6 6 6 6 6 7 6 8 9 8 7 7 7 8 8 8
25 27 25 24 25 23 21 21 21 21 22 23 22 22 21 21 20 20 19 19 19 18 18 17 16 15 15 15 15 15 15 14 14 13 11 10 10 9 9 9 9 8 9 9 9 9 9 9 9 8 8 8 8 8 8 8 8 8 7 6 7 8 7 7 7 6 6 7 8 8 8 8 8 7 7 7 8 9 9 8 8 9 9 9 10
26 27 26 27 27 24 22 21 21 21 22 22 21 21 20 19 20 20 19 19 19 19 19 18 16 16 16 16 16 16 15 15 14 14 12 10 10 10 10 9 10 10 9 9 9 9 9 9 9 8 8 8 9 9 9 8 8 8 7 7 8 8 7 7 8 7 8 8 9 8 8 9 9 9 8 7 7 8 8 8 8 9 8 8 9
24 25 25 25 25 23 22 21 20 20 22 22 20 19 19 19 20 22 21 20 18 18 18 17 16 17 16 16 15 15 16 16 15 14 13 12 12 11 11 11 10 10 10 10 10 10 10 9 9 9 10 10 10 10 9 8 8 7 7 7 7 7 6 7 7 8 8 9 9 9 8 8 8 8 8 7 7 7 8 8 8 8 9 8 9
21 22 21 21 21 20 20 20 19 20 22 23 20 19 19 19 20 23 23 21 19 19 18 16 16 16 15 15 16 16 16 17 16 15 13 13 13 12 12 12 10 10 10 11 10 10 11 10 10 11 11 11 11 10 9 9 8 7 7 7 7 7 7 7 7 7 7 7 8 8 7 7 6 7 7 6 7 7 7 8 9 9 10 10 10
20 22 22 23 22 19 18 20 21 21 21 20 20 20 20 20 22 23 23 22 21 21 20 17 15 15 14 15 16 16 16 16 16 16 15 14 13 12 12 12 11 10 10 11 11 11 11 11 10 11 11 10 10 10 9 9 8 8 7 7 7 7 7 7 7 8 7 7 8 7 7 7 7 8 8 7 7 7 7 7 8 8 9 9 10
18 22 26 26 26 24 22 22 23 24 22 19 19 21 21 22 24 25 23 23 23 23 21 18 16 15 14 15 15 15 15 16 17 16 15 15 15 13 13 13 12 12 11 11 12 12 12 12 10 10 10 10 10 10 9 9 8 8 7 7 7 7 7 8 8 8 8 8 8 8 7 7 7 7 7 6 6 7 7 7 7 7 8 9 10
15 17 20 23 26 27 27 25 24 25 24 22 22 22 21 22 24 24 23 24 25 25 23 20 18 17 16 15 15 15 15 15 16 16 15 15 15 15 14 13 14 13 12 12 12 12 12 12 11 11 11 11 11 10 10 10 9 9 9 8 8 8 8 7 7 7 8 7 7 8 8 7 8 7 7 7 7 8 7 7 8 9 8 9 11
16 15 16 18 21 23 26 27 26 24 23 24 24 21 19 19 20 21 21 23 25 26 25 23 20 19 18 17 16 16 15 15 15 15 15 14 15 15 15 14 14 14 14 13 12 12 12 12 12 11 11 11 12 12 12 12 11 10 10 10 9 9 8 8 7 7 7 7 8 8 8 8 7 7 7 7 7 7 7 8 9 9 10 10 10
16 17 17 17 17 18 21 23 24 25 24 25 25 24 21 20 20 21 21 22 24 26 26 25 23 22 21 20 18 16 15 15 15 15 15 15 14 14 15 15 14 14 15 14 13 13 13 12 12 12 12 12 12 13 13 13 12 11 11 10 10 9 9 8 8 7 7 8 8 8 8 8 8 8 8 7 7 7 8 8 8 9 10 11 11
15 17 17 16 16 16 17 17 18 22 23 22 23 27 29 28 25 24 23 22 23 25 26 26 25 24 23 21 19 18 17 16 16 16 16 16 16 15 15 15 15 14 14 14 14 13 12 12 12 13 13 13 12 12 13 14 13 12 11 10 10 10 9 9 9 8 8 8 8 9 9 9 10 11 9 9 9 10 10 10 10 11 11 11 12
14 15 15 14 14 14 14 14 15 17 17 16 16 21 27 30 29 27 25 24 23 24 24 25 25 24 22 21 20 19 19 18 17 17 17 18 17 16 15 15 16 15 14 14 15 14 13 12 12 13 14 13 12 13 15 16 15 13 13 12 11 12 12 11 10 9 9 9 9 10 9 11 13 12 11 11 11 11 12 12 12 13 13 13 13
12 11 11 11 12 13 14 14 15 16 16 16 16 16 18 21 23 24 25 25 24 24 24 25 25 23 22 22 22 20 20 19 18 18 18 18 18 17 17 16 16 16 15 16 17 16 15 13 11 12 13 12 13 16 18 18 17 16 16 16 15 14 14 13 12 11 10 10 10 10 10 11 12 11 10 12 12 12 13 14 14 15 15 15 16
11 10 10 11 12 14 15 16 17 19 19 19 19 18 16 17 19 21 24 25 23 24 26 26 26 25 24 24 24 21 19 19 20 19 18 18 18 17 18 18 16 15 15 16 16 16 17 15 13 12 11 11 16 21 21 19 17 18 18 17 16 14 13 13 12 11 11 10 10 10 10 10 11 11 12 13 14 14 13 14 15 16 17 17 17
10 10 10 11 11 12 13 15 17 17 18 18 19 19 18 18 19 20 23 24 23 24 26 26 27 28 28 29 28 25 22 22 22 20 17 17 18 17 17 18 16 14 14 15 15 17 18 16 14 13 12 15 20 22 20 18 18 18 18 18 16 14 13 13 13 12 12 12 11 11 11 10 10 12 13 13 14 15 15 15 16 17 18 18 18
11 11 10 11 11 11 11 12 12 11 11 11 12 13 15 17 19 20 21 20 20 20 22 23 24 25 27 28 29 28 26 25 26 23 19 18 19 17 18 20 19 17 15 15 14 15 16 14 14 15 15 18 20 19 18 18 18 17 18 18 17 15 13 13 14 14 13 13 13 12 12 12 11 13 15 14 14 14 15 16 17 18 18 18 19
11 11 11 12 12 12 12 11 10 9 7 6 6 8 12 16 19 21 21 21 21 22 23 23 22 21 23 24 23 24 24 24 26 25 23 23 22 19 18 19 19 19 19 18 16 15 15 14 14 14 16 19 20 18 17 17 16 16 17 17 17 16 14 13 15 16 16 15 15 14 14 14 14 16 18 17 16 17 17 18 19 19 20 20 21
12 11 12 13 12 11 11 10 9 10 9 7 6 6 7 12 15 18 20 22 24 25 25 23 22 21 22 21 19 19 19 19 20 23 25 24 22 20 19 18 17 17 18 19 18 17 17 16 15 15 16 19 19 17 17 17 16 17 17 17 18 17 16 15 16 18 18 17 16 16 15 13 14 17 19 19 19 20 19 19 20 21 22 22 22
11 11 11 11 9 7 7 7 8 9 9 7 6 5 4 5 8 11 14 18 21 21 21 21 21 21 21 20 19 18 16 15 16 19 21 20 17 18 20 20 20 18 18 18 17 17 16 15 16 17 19 20 19 18 18 18 18 19 18 17 18 18 17 17 17 18 17 15 16 18 16 13 14 18 19 19 19 19 20 20 21 21 22 23 22
12 12 12 10 8 8 8 9 9 11 11 10 7 7 8 10 10 9 11 14 15 15 15 15 15 15 16 16 16 16 15 15 16 17 17 16 15 16 18 18 19 19 19 19 18 17 16 14 14 16 18 18 17 17 19 19 19 20 18 17 17 17 16 15 14 13 12 11 14 16 15 15 16 19 19 19 18 19 19 19 20 20 20 21 19
13 13 13 13 12 13 14 14 14 14 13 12 12 12 14 16 16 15 14 14 14 15 15 14 13 13 14 12 12 12 12 12 13 13 12 12 12 14 15 16 16 16 16 17 17 17 17 15 13 13 14 14 13 14 16 16 17 17 16 15 14 13 11 11 11 11 10 11 12 14 15 16 18 18 19 19 18 19 19 19 19 20 20 20 20
14 14 14 15 15 16 17 16 17 16 14 13 14 15 17 18 18 16 16 17 18 17 17 16 16 15 15 14 14 13 12 11 11 11 12 12 12 13 13 13 12 12 13 14 14 14 14 13 12 12 12 11 11 11 10 10 11 11 11 12 11 10 10 11 10 9 9 9 10 12 15 17 17 17 17 18 18 18 19 19 19 19 20 22 23
14 15 16 16 16 17 16 16 16 15 14 13 14 15 16 17 17 17 17 19 19 19 19 19 19 18 17 17 18 17 17 16 15 15 15 14 13 13 13 12 11 11 11 12 11 11 11 11 10 10 9 8 8 7 7 7 7 8 8 8 9 9 10 9 7 4 4 5 6 9 13 16 16 16 17 17 18 18 18 19 19 20 21 22 23
15 15 16 16 16 16 16 15 14 12 12 13 14 16 16 16 18 18 18 19 19 18 15 15 16 17 16 16 17 17 16 15 14 15 15 14 13 13 12 12 12 12 11 11 10 9 9 9 8 7 6 6 5 5 5 4 4 4 5 6 6 7 8 7 4 2 2 3 3 6 11 13 13 14 15 16 17 17 17 18 18 19 19 19 20
17 15 14 15 16 16 15 14 13 12 12 11 12 15 16 16 18 18 16 16 17 16 13 13 16 17 16 16 17 16 15 14 14 13 13 13 12 12 12 12 12 11 11 11 9 8 8 7 7 6 5 4 4 3 2 2 2 2 2 3 4 4 5 5 3 3 4 4 5 7 10 10 10 11 12 13 14 16 16 16 17 16 17 17 17
17 15 13 13 14 15 14 12 11 12 13 12 12 14 15 16 17 18 15 14 15 15 14 15 17 17 16 17 17 16 14 13 12 11 11 11 11 11 11 11 10 10 10 10 8 8 7 6 6 5 4 3 2 2 2 1 1 1 1 1 2 2 2 3 4 5 6 6 7 8 8 8 8 9 10 12 13 14 14 15 16 16 16 17 17
17 16 14 12 12 13 13 11 9 9 11 11 11 12 13 15 16 17 16 16 17 17 17 18 17 16 16 15 15 13 12 11 11 10 9 9 10 9 9 9 8 8 7 6 6 5 5 4 4 3 4 4 3 2 1 1 0 0 0 1 1 1 2 3 3 4 5 6 7 7 7 8 8 9 9 11 12 12 13 14 15 14 14 15 17
18 19 16 13 12 12 11 10 9 8 8 8 9 10 12 12 13 14 14 15 16 18 18 18 17 16 15 14 12 11 10 9 8 7 6 6 6 6 6 8 9 8 8 7 6 6 6 6 5 4 4 3 3 2 1 0 1 2 2 2 2 2 3 3 4 4 5 6 7 7 8 8 8 9 9 10 11 11 12 13 14 13 13 15 17
16 17 15 12 10 10 10 9 9 8 7 7 8 9 10 10 9 10 11 11 13 16 17 16 15 14 14 13 12 11 10 9 8 7 7 6 5 5 7 9 9 9 9 8 7 7 8 8 8 7 5 3 2 1 0 2 3 3 4 5 5 5 5 5 5 6 6 7 8 8 9 9 10 10 11 11 12 12 12 13 13 14 15 16 17
14 12 11 10 9 8 7 6 6 6 6 7 7 8 9 9 9 9 10 9 10 13 14 14 14 13 13 13 12 11 11 11 11 10 10 9 8 8 8 9 9 9 9 9 8 8 8 8 7 7 5 4 2 1 3 5 5 5 6 7 7 8 8 8 8 8 9 9 10 10 10 10 10 10 10 11 12 13 13 13 13 13 15 16 16
13 12 9 8 6 4 3 3 4 5 5 5 7 6 6 7 6 8 9 9 10 11 12 12 12 11 11 12 11 11 10 10 10 10 9 10 10 9 9 8 8 9 9 9 9 9 8 8 7 6 5 4 2 3 5 6 6 6 7 8 8 9 9 9 10 10 10 10 10 10 11 10 10 9 9 10 11 12 12 13 13 13 13 15 15
12 11 9 6 4 3 2 2 3 5 6 6 6 5 5 5 5 6 8 9 10 11 11 11 10 9 10 10 11 10 10 9 9 8 8 9 9 9 9 8 8 8 7 7 7 7 6 6 6 5 4 4 3 5 6 7 7 7 8 8 9 9 9 9 10 10 9 9 10 10 10 10 10 10 10 10 10 11 11 11 12 12 13 14 15
13 8 4 5 5 5 3 2 3 5 6 6 5 5 5 5 5 5 7 8 9 10 10 10 10 11 12 11 11 10 10 9 8 7 7 7 8 8 8 7 7 7 6 6 6 5 4 4 4 4 4 5 5 6 7 7 7 7 8 8 9 9 9 9 8 8 8 9 9 10 10 11 11 11 11 12 11 11 11 11 11 11 12 13 14
Wind_Direction
170 171 171 172 171 170 167 166 168 169 172 175 172 173 173 170 170 168 165 168 168 167 164 161 167 170 164 160 160 162 163 161 157 155 158 162 162 158 157 155 151 149 142 135 132 130 132 135 136 132 130 135 131 124 124 122 117 106 88 74 63 59 60 59 74 81 84 95 98 97 91 87 88 94 105 109 109 109 103 102 107 95 84 88 89
169 170 172 174 174 171 169 168 170 171 177 179 176 178 176 171 176 176 172 171 172 174 169 167 171 168 162 159 159 162 161 156 155 156 159 167 163 158 160 156 152 154 146 140 135 132 133 134 136 138 141 147 137 127 125 125 121 104 84 69 58 63 67 66 87 91 81 92 103 107 101 93 86 89 100 107 110 110 106 98 96 99 95 91 90
173 174 175 176 174 172 170 172 174 174 178 180 181 185 179 175 183 186 181 176 177 178 172 170 168 160 159 161 157 159 160 155 162 164 157 162 167 162 162 157 152 151 144 138 135 137 139 134 133 144 146 142 138 136 131 128 123 100 79 76 67 66 74 72 81 89 87 91 97 104 106 98 91 90 94 100 107 106 107 105 96 97 103 99 89
176 178 177 176 175 174 174 174 174 175 179 181 183 188 185 185 189 190 187 181 181 179 171 168 166 162 162 164 160 162 168 165 167 167 156 159 168 166 166 160 152 149 144 136 136 143 143 136 139 148 144 138 138 136 129 121 113 98 85 81 72 71 81 77 70 71 82 94 92 96 99 92 92 97 95 93 105 108 105 105 102 101 103 97 88
178 178 177 177 175 175 175 175 175 177 181 183 184 187 189 192 193 192 191 184 180 177 172 169 168 169 169 167 166 166 172 171 167 167 165 164 165 165 173 169 157 155 150 140 141 148 144 143 144 141 140 139 135 128 129 126 110 101 97 83 70 78 88 87 76 67 76 82 79 87 88 75 76 93 96 86 88 103 106 102 99 102 102 95 95
180 178 178 178 176 176 177 178 178 179 182 184 185 186 190 196 195 192 191 187 183 179 177 176 172 175 175 171 171 171 172 173 168 170 171 165 162 168 177 176 165 161 155 149 153 155 151 151 145 142 145 145 146 142 132 120 109 101 104 94 78 86 94 94 88 72 69 70 68 74 72 63 63 69 92 95 87 93 107 107 98 99 104 97 95
182 181 179 179 178 178 179 182 183 180 182 183 183 187 193 197 195 192 192 189 188 183 183 183 177 180 181 173 174 175 174 176 170 167 170 165 165 171 178 179 171 165 166 165 163 164 162 160 155 151 151 154 162 150 126 112 132 139 120 110 101 96 95 93 91 80 70 67 69 69 62 68 70 60 79 103 99 93 100 107 103 105 111 101 92
184 183 182 183 182 182 182 184 186 183 181 182 182 188 197 198 194 194 193 191 191 189 186 185 181 182 181 176 176 174 173 179 172 167 171 170 167 169 175 181 177 172 174 173 170 174 174 169 169 165 163 170 164 147 143 159 168 157 128 114 111 103 93 91 94 85 73 68 69 66 58 66 68 64 79 90 92 105 111 104 101 109 107 96 92
185 185 185 186 186 187 186 185 186 184 182 184 183 189 199 198 193 195 194 192 194 193 188 186 184 184 183 181 179 173 171 174 172 172 175 173 171 173 176 181 185 182 179 179 177 181 181 178 181 179 178 180 161 148 181 183 176 167 146 126 116 106 93 86 84 76 70 62 55 57 56 57 60 64 75 76 66 89 107 107 106 115 106 86 79
187 187 187 189 190 190 189 187 186 185 184 186 185 190 198 197 193 195 193 191 193 193 190 189 189 187 184 183 182 180 178 173 172 176 176 175 175 177 179 179 186 190 189 191 188 186 188 185 185 185 185 190 178 173 183 181 181 188 176 149 126 114 99 73 61 61 63 56 40 46 52 46 49 54 57 69 65 51 69 109 114 121 120 101 64
188 189 188 190 192 191 191 189 187 186 187 189 188 189 195 197 195 192 192 191 191 192 191 190 193 192 189 186 185 185 188 184 180 181 179 178 178 180 186 184 184 190 192 200 197 192 194 188 185 192 194 195 193 186 178 163 163 207 205 176 151 134 115 65 40 26 24 36 27 27 43 37 36 42 36 46 50 31 8 28 75 57 109 123 84
188 189 189 191 192 192 192 191 189 188 189 191 190 190 194 199 197 191 191 191 190 191 191 192 194 194 191 188 188 189 191 191 189 191 188 186 187 188 191 189 189 191 191 198 201 199 200 196 191 197 200 196 195 195 187 174 172 195 212 202 199 182 145 200 12 5 348 11 21 13 26 25 20 24 27 31 23 28 14 348 14 11 324 144 89
189 188 190 192 192 193 192 191 191 194 200 200 193 189 195 201 198 192 191 190 190 191 191 193 194 195 194 190 191 192 192 194 193 196 197 196 198 198 197 196 196 197 195 195 199 202 205 202 197 199 201 199 197 200 199 191 185 194 214 216 220 231 171 209 294 319 311 323 347 344 354 3 4 5 5 12 359 2 0 333 341 345 301 290 339
190 189 192 194 193 194 192 193 200 206 212 209 196 192 198 203 200 195 193 191 192 192 191 194 194 194 195 192 194 195 193 195 195 196 203 207 207 204 202 204 205 205 203 198 197 199 203 204 201 200 201 203 203 204 206 204 195 199 215 212 216 247 236 214 264 285 295 293 298 307 323 330 328 337 340 344 337 334 345 339 339 330 300 294 287
191 191 193 194 197 200 197 199 209 214 214 206 198 200 205 206 201 196 195 193 192 192 192 195 197 195 196 194 194 197 196 197 198 199 201 205 208 210 209 206 206 210 209 204 200 196 196 198 199 200 203 206 206 206 209 211 205 205 216 211 210 242 251 241 250 256 273 276 281 285 287 297 306 306 310 323 327 330 342 344 341 335 315 305 302
191 192 194 195 202 210 207 206 211 214 212 203 200 208 211 207 202 198 196 195 194 193 192 195 198 198 198 197 196 198 199 199 200 201 200 201 205 209 215 210 204 208 206 204 203 200 196 195 196 199 205 209 209 210 210 212 210 210 220 217 211 236 253 252 255 252 256 268 277 277 276 280 284 278 278 299 306 310 328 332 332 332 319 310 310
192 193 195 196 201 210 210 208 208 208 208 204 205 212 212 207 204 199 197 197 196 194 193 194 197 199 200 202 201 200 201 201 202 203 201 206 208 204 212 216 209 206 202 204 209 205 199 196 195 198 204 209 212 216 215 213 214 213 221 224 213 226 245 249 253 256 258 265 269 272 279 278 275 279 280 282 286 292 310 317 315 316 310 311 312
197 198 199 198 201 207 208 207 208 207 207 207 211 214 213 210 206 201 198 198 197 197 197 197 198 200 201 203 204 204 204 202 203 205 203 206 208 203 206 210 209 206 200 204 212 207 202 199 197 198 203 207 210 215 219 217 218 217 223 230 226 229 242 249 251 254 256 257 255 256 267 269 273 282 282 277 279 286 296 298 297 298 298 303 306
196 203 203 198 202 209 208 206 207 208 209 209 211 214 214 212 207 204 202 201 200 201 203 202 201 203 205 206 205 206 206 203 204 208 206 204 203 201 205 204 204 210 210 209 208 205 206 203 201 202 204 208 211 214 222 222 220 222 224 231 243 243 243 248 253 257 256 255 254 253 256 259 261 267 270 270 272 277 282 284 286 288 291 297 300
192 205 209 206 209 211 209 208 207 208 210 208 209 211 211 209 207 204 203 205 205 206 208 207 203 205 209 210 207 206 207 207 208 209 206 206 205 201 203 204 204 211 216 215 209 205 208 205 203 208 208 214 218 214 221 224 219 224 223 218 235 244 241 242 246 247 249 254 257 258 259 260 262 265 269 272 273 277 279 277 279 283 289 295 297
190 201 207 210 214 213 209 210 207 207 211 208 205 208 206 203 204 203 202 205 206 207 211 213 209 209 212 213 211 209 208 207 210 213 210 208 209 203 201 205 207 208 208 210 209 206 209 207 204 208 207 213 220 215 217 224 221 224 223 215 224 234 233 236 241 243 247 254 259 260 260 260 263 265 265 268 272 276 277 277 278 283 287 290 291
185 192 200 204 209 210 206 207 203 204 212 209 203 205 205 201 205 208 207 206 204 205 213 216 214 214 214 213 212 212 212 209 208 213 213 210 211 206 203 204 207 210 207 206 207 208 212 210 205 211 210 211 219 217 215 222 224 223 222 221 230 237 233 233 239 242 246 253 258 260 261 263 266 268 267 266 269 269 270 272 273 275 280 283 286
179 183 189 193 198 202 202 202 199 202 213 213 205 204 203 200 207 215 215 211 205 206 214 218 216 218 218 215 214 212 214 212 208 211 212 211 212 210 210 208 206 211 213 209 207 208 218 219 211 216 218 215 219 218 214 220 224 225 224 222 228 237 240 237 237 241 243 248 255 258 259 259 257 260 265 264 265 267 268 269 270 270 275 280 283
176 177 181 186 193 196 197 198 198 203 210 210 206 208 205 201 210 219 220 216 213 213 217 218 216 219 218 215 215 213 212 212 210 211 212 210 210 210 215 214 208 210 215 215 211 210 222 229 223 224 225 221 222 218 214 220 228 232 233 229 230 236 241 242 239 241 242 241 247 251 249 248 247 253 263 265 263 265 268 272 277 279 280 282 284
179 181 187 193 199 202 203 202 203 207 209 204 204 210 211 212 219 224 222 219 221 223 224 220 215 217 215 213 214 212 212 211 209 211 214 214 213 211 214 216 213 212 212 216 217 213 221 230 226 227 229 224 223 221 217 220 225 232 233 232 239 242 242 246 245 244 246 244 245 247 244 245 248 253 259 259 257 261 266 271 275 276 279 281 282
186 185 188 193 199 203 207 212 213 214 214 213 214 216 219 225 230 231 227 224 224 226 227 223 218 217 214 212 210 207 209 211 210 210 213 215 217 216 217 218 216 215 212 213 217 216 221 227 223 222 225 226 225 224 225 223 221 226 229 227 234 240 241 246 248 249 251 251 248 249 249 248 248 251 252 250 254 261 265 266 267 270 275 278 282
193 192 192 194 197 200 205 212 217 216 214 216 218 218 220 229 236 237 233 228 225 226 227 224 221 220 219 216 212 207 207 208 210 212 212 214 218 219 221 221 220 218 216 215 216 217 219 225 224 220 221 226 228 227 227 225 218 221 228 227 227 233 236 239 243 245 246 248 248 248 250 251 251 254 255 256 262 266 265 265 270 276 278 278 282
193 194 195 197 198 200 202 207 213 215 213 214 217 219 223 232 239 241 237 230 228 228 227 226 224 223 223 223 221 217 214 210 210 212 212 212 215 217 219 222 222 221 221 220 221 222 222 224 227 226 224 228 232 231 227 225 220 219 225 229 228 229 233 236 240 241 241 242 243 243 245 247 248 250 249 250 255 258 259 263 267 269 273 277 281
190 193 195 196 196 198 199 201 208 212 214 216 220 223 228 234 237 238 234 229 227 227 228 228 226 223 223 226 229 229 226 219 216 218 218 216 216 218 220 221 222 222 224 225 224 225 226 226 227 229 229 229 232 233 231 227 223 221 224 229 233 233 232 235 239 240 240 240 241 242 243 240 242 247 249 248 250 254 257 260 263 265 268 272 276
180 186 190 191 192 195 196 198 203 207 210 214 218 221 225 229 232 233 230 226 224 225 227 228 227 224 222 223 228 233 234 230 224 222 222 221 219 220 222 225 229 227 226 227 226 224 226 228 231 234 235 234 232 234 236 232 225 224 225 226 231 233 231 231 235 238 240 242 244 245 245 248 250 251 253 253 253 255 259 261 262 263 263 264 267
163 164 169 171 177 185 187 190 196 201 204 207 210 212 213 218 223 226 227 225 223 224 227 229 228 225 223 224 227 231 233 233 229 225 224 223 221 221 222 225 231 233 232 235 235 233 231 230 233 237 239 239 235 235 238 236 229 229 231 230 234 238 238 237 239 241 243 244 247 247 249 258 263 259 255 259 258 255 257 260 261 261 261 262 263
153 147 146 148 159 174 179 185 193 197 202 206 208 208 208 211 217 222 225 225 224 225 227 230 230 229 228 229 229 227 227 228 227 227 229 228 225 225 224 223 225 231 236 239 241 241 239 233 230 235 235 235 235 236 239 240 236 234 234 234 237 242 244 243 243 244 246 246 248 249 249 254 261 259 259 267 271 269 267 267 267 267 267 267 267
154 145 140 142 151 166 178 190 198 201 207 213 214 215 217 218 221 225 228 228 227 226 226 227 230 231 231 233 234 233 234 233 232 230 231 232 232 231 229 224 220 222 229 234 237 241 242 236 231 233 231 231 238 242 244 243 241 238 237 237 238 241 244 245 244 245 249 251 253 256 257 256 259 262 266 272 276 278 277 277 276 275 274 274 273
157 140 132 134 139 145 158 177 187 188 198 208 210 215 220 221 220 223 224 224 222 221 222 225 228 230 233 235 236 236 238 241 241 236 233 234 233 231 230 227 222 222 227 230 233 237 240 235 231 232 233 236 243 248 247 245 243 242 242 240 240 243 247 248 249 248 248 251 256 261 265 266 266 267 272 275 277 278 279 279 279 279 279 279 278
156 140 140 143 143 145 147 150 150 145 146 156 171 196 214 219 221 222 222 220 220 220 221 223 224 226 228 229 232 233 235 239 241 238 236 236 233 233 237 235 228 228 230 230 229 229 227 224 225 231 238 241 244 247 247 246 244 243 243 242 241 242 244 247 250 251 249 250 254 258 263 268 270 269 270 273 274 275 276 276 276 276 277 277 278
157 144 145 147 146 147 148 146 144 141 134 136 152 175 204 216 220 224 227 227 227 226 225 223 220 217 218 220 223 224 226 230 234 235 237 237 235 234 236 232 224 221 220 219 219 221 222 222 223 227 237 243 246 249 251 250 248 247 246 246 244 243 243 245 248 253 255 256 257 256 257 263 269 269 268 269 271 273 275 275 275 275 275 275 276
152 145 141 145 149 151 158 164 161 153 141 141 155 149 149 182 199 211 220 224 222 220 219 219 217 215 215 216 217 217 218 220 223 227 231 232 229 225 221 219 216 210 205 205 207 212 219 224 223 224 234 245 250 253 254 254 254 253 252 252 252 250 250 251 254 259 263 263 261 259 258 260 264 266 267 269 271 273 276 277 278 277 275 276 276
145 140 132 135 142 147 156 159 154 152 148 149 153 139 122 124 131 147 174 192 196 192 190 192 194 193 193 195 197 199 202 203 202 207 214 215 213 211 208 207 208 206 205 207 207 207 208 210 214 223 234 244 249 251 253 254 255 256 254 254 255 257 258 258 258 260 260 257 259 262 261 260 262 265 270 274 274 275 277 278 278 278 277 279 280
137 135 131 129 132 135 140 140 137 138 139 144 150 147 138 130 123 124 132 140 149 152 151 147 143 145 150 152 159 167 172 182 190 191 191 188 186 189 189 191 194 196 200 205 207 206 204 202 209 227 236 241 245 248 251 253 253 255 254 251 249 249 251 252 251 248 244 245 255 262 261 258 261 266 271 274 275 274 275 275 275 277 277 275 275
133 133 132 130 130 129 128 128 128 125 125 133 142 146 144 137 129 126 123 121 124 129 130 126 122 123 124 121 123 130 135 142 146 143 145 153 156 159 164 168 174 178 183 190 195 198 199 200 210 225 231 233 237 241 246 248 245 244 245 244 240 233 232 240 245 246 245 248 255 263 261 259 264 272 275 276 276 275 275 276 275 275 274 273 273
137 135 133 130 129 129 129 128 126 123 124 131 136 139 140 136 134 133 127 123 125 124 121 118 115 113 114 117 119 121 123 124 122 123 131 138 134 131 131 133 138 148 158 167 175 181 185 191 202 212 217 222 228 232 240 245 242 240 241 244 244 239 237 243 249 250 255 257 253 261 266 266 271 280 281 280 279 279 279 279 277 275 276 278 281
139 134 133 135 135 134 132 127 123 123 130 137 139 138 137 136 137 136 130 127 130 128 121 118 120 120 119 121 123 124 124 124 125 128 131 129 122 118 119 121 125 131 138 143 149 158 167 177 188 194 197 203 212 218 225 229 231 234 237 238 241 239 236 242 253 251 256 270 266 270 276 278 281 284 284 283 283 283 281 279 278 278 279 282 284
144 138 139 139 136 134 129 126 126 129 136 144 144 140 141 144 142 139 135 133 136 135 126 119 125 130 131 128 128 128 128 127 129 132 130 126 120 116 116 118 120 123 125 124 128 139 150 160 171 173 171 177 186 190 191 192 196 204 217 228 234 234 232 237 246 240 242 264 277 274 279 286 287 287 289 290 289 288 286 284 283 283 285 285 287
141 139 141 137 134 133 128 126 131 134 139 148 149 143 145 146 142 138 135 133 135 137 133 130 132 137 139 136 134 134 134 131 129 132 133 129 121 115 113 114 115 118 119 119 122 129 133 136 142 145 149 158 168 174 167 148 157 175 193 238 250 258 260 263 267 261 262 276 285 284 288 296 296 296 298 297 295 294 295 295 295 297 296 293 292
144 145 143 136 136 136 130 127 133 138 140 145 150 151 150 145 141 138 136 135 137 138 138 138 139 139 140 140 138 137 137 133 128 127 129 128 125 120 115 113 113 120 131 139 140 139 146 163 174 180 191 196 191 185 169 140 154 277 325 303 301 305 296 288 284 282 287 294 300 305 309 309 307 307 306 303 300 299 299 299 302 308 308 302 300
151 155 153 145 140 135 130 129 132 132 132 136 145 154 154 146 140 138 137 139 143 146 146 144 141 139 142 144 142 143 145 145 142 142 142 144 148 148 142 133 128 129 138 145 144 141 151 165 172 174 178 174 161 136 103 36 338 341 337 327 328 326 319 314 308 306 307 308 310 313 314 313 313 313 312 311 309 308 307 306 308 313 312 306 306
150 153 156 157 150 137 133 138 140 134 129 129 137 150 155 147 139 142 146 148 151 154 155 151 145 143 142 141 142 146 147 143 143 144 144 146 155 166 169 163 156 152 149 147 143 143 145 147 146 147 147 140 131 123 295 299 310 317 316 316 318 314 311 311 307 306 310 311 313 315 315 318 321 321 321 321 318 317 318 316 314 314 311 307 309
128 129 137 146 146 140 139 148 153 148 140 136 139 146 150 144 140 148 154 155 157 158 156 151 147 144 142 143 146 145 139 138 141 143 142 141 144 154 167 172 171 167 163 158 151 145 143 141 140 143 145 143 148 223 262 275 286 295 302 308 311 310 309 306 304 306 308 309 314 319 322 325 327 325 323 319 315 316 317 315 315 315 312 310 312
108 95 102 120 127 129 134 138 137 133 129 135 136 133 132 134 139 149 156 160 162 158 152 150 149 146 144 145 142 137 135 141 149 154 156 154 153 158 167 172 172 168 167 167 164 158 156 156 155 154 155 158 187 257 273 280 287 295 301 307 311 311 312 312 314 316 317 320 325 329 330 330 329 325 322 317 314 315 315 313 314 313 311 311 313
130 101 87 81 69 63 72 118 135 119 103 103 110 109 115 126 131 139 150 160 163 159 159 160 159 156 153 148 143 140 138 135 139 148 157 161 160 162 167 169 170 171 171 172 174 176 180 182 183 188 190 197 243 277 287 293 300 305 309 312 315 315 316 320 324 326 330 337 343 343 340 338 337 334 331 328 324 321 320 318 316 314 312 312 311
154 134 87 44 42 43 37 54 103 106 98 97 102 105 110 117 123 133 147 154 157 160 162 163 164 166 163 158 156 155 148 142 143 146 150 158 161 164 169 169 168 171 174 178 184 191 197 204 211 221 228 239 260 280 290 295 301 307 311 313 316 319 322 326 330 332 337 344 346 345 341 340 343 342 337 335 334 332 328 326 323 320 317 315 312